SV2BZQ-2 Thessalonik GR current weather conditions

sailwx.info

Wind from 155

Air temperature 17.2° C
Dewpoint 13.9° C

Last reported at 2014-Sep-30 20:45 UTC.
Time now 2014-Sep-30 21:56 UTC

Location: N 40°41' E 022°51'.
View on Google Maps.

See reports from other nearby stations

  
Tides and Currents Weather Stations Pressure Air Temp Water Temp Dewpoint Dewpoint Depression Visibility Wind Speed Wind Dir Waves Ship Positions
date/time (UTC)wind fromknots sea level pressurealtimeterstation pressurevisibilityair tempwater tempwave heightnotes
2014-Sep-30 20:45 155 17.2
2014-Sep-30 20:33 155 17.8
2014-Sep-30 20:29 155 17.8
2014-Sep-30 20:23 155 17.8
2014-Sep-30 20:14 155 17.8
2014-Sep-30 20:03 155 18.3
2014-Sep-30 19:59 155 17.8
2014-Sep-30 19:53 156 18.3
2014-Sep-30 19:44 156 17.8
2014-Sep-30 19:33 156 18.3
2014-Sep-30 19:29 156 17.8
2014-Sep-30 19:23 156 0 gusting 4 18.3
2014-Sep-30 19:14 157 0 gusting 4 18.3
2014-Sep-30 19:03 198 18.9
2014-Sep-30 18:59 198 18.3
2014-Sep-30 18:53 200 18.9
2014-Sep-30 18:44 199 18.9
2014-Sep-30 18:33 200 19.4
2014-Sep-30 18:28 200 19.4
2014-Sep-30 18:23 200 19.4
2014-Sep-30 18:13 199 19.4
2014-Sep-30 18:03 200 20.0
2014-Sep-30 17:58 200 20.0
2014-Sep-30 17:53 200 20.0
2014-Sep-30 17:43 200 20.0
2014-Sep-30 17:33 200 20.6
2014-Sep-30 17:29 200 20.6
2014-Sep-30 17:23 200 20.6
2014-Sep-30 17:13 200 20.6
2014-Sep-30 17:03 200 21.1
2014-Sep-30 16:57 200 21.1
2014-Sep-30 16:53 200 21.7
2014-Sep-30 16:43 200 21.7
2014-Sep-30 16:33 200 22.2
2014-Sep-30 16:27 199 22.2
2014-Sep-30 16:23 200 22.8
2014-Sep-30 16:13 200 22.8
2014-Sep-30 16:03 199 23.3
2014-Sep-30 15:57 200 23.3
2014-Sep-30 15:53 200 23.3
2014-Sep-30 15:43 200 0 23.9
2014-Sep-30 15:33 199 23.9
2014-Sep-30 15:27 199 23.9
2014-Sep-30 15:23 194 0 gusting 4 23.9
2014-Sep-30 15:13 186 1 gusting 3 24.4
2014-Sep-30 15:03 175 0 gusting 4 25.0
2014-Sep-30 14:56 178 1 gusting 5 25.0
2014-Sep-30 14:53 205 0 gusting 2 25.0
2014-Sep-30 14:43 205 0 gusting 3 25.0
2014-Sep-30 14:33 205 25.0
2014-Sep-30 14:26 205 2 gusting 5 25.0
2014-Sep-30 14:23 281 0 gusting 2 25.6
2014-Sep-30 14:13 283 0 gusting 1 25.0
2014-Sep-30 14:03 285 3 gusting 6 25.0
2014-Sep-30 13:56 327 0 gusting 6 25.0
2014-Sep-30 13:53 333 3 gusting 5 25.6
2014-Sep-30 13:43 014 0 gusting 3 25.6
2014-Sep-30 13:40 017 1 gusting 4 25.0
2014-Sep-30 13:33 287 0 gusting 3 25.6
2014-Sep-30 13:25 294 25.6
2014-Sep-30 13:13 276 1 gusting 3 25.6
2014-Sep-30 13:10 275 1 gusting 3 25.0
2014-Sep-30 13:03 309 1 gusting 2 25.0
2014-Sep-30 12:55 295 0 gusting 5 24.4
2014-Sep-30 12:43 301 0 gusting 1 24.4
2014-Sep-30 12:40 300 24.4
2014-Sep-30 12:33 349 25.0
2014-Sep-30 12:24 304 0 gusting 6 24.4
2014-Sep-30 12:13 346 1 gusting 2 24.4
2014-Sep-30 12:09 346 1 gusting 4 24.4
2014-Sep-30 12:03 263 25.6
2014-Sep-30 11:54 265 25.0
2014-Sep-30 11:43 256 24.4
2014-Sep-30 11:40 257 0 gusting 7 23.9
2014-Sep-30 11:33 243 0 gusting 2 24.4
2014-Sep-30 11:25 280 0 gusting 3 23.9
2014-Sep-30 11:13 288 23.9
2014-Sep-30 11:08 317 23.3
2014-Sep-30 11:03 316 2 gusting 6 23.9
2014-Sep-30 10:54 194 0 gusting 3 23.9
2014-Sep-30 10:43 269 23.3
2014-Sep-30 10:39 261 1 gusting 5 23.3
2014-Sep-30 10:33 231 23.3
2014-Sep-30 10:23 232 22.8
2014-Sep-30 10:13 188 1 gusting 3 23.3
2014-Sep-30 10:09 287 22.8
2014-Sep-30 10:03 296 0 gusting 3 22.8
2014-Sep-30 09:53 172 0 gusting 5 22.8
2014-Sep-30 09:43 282 22.8
2014-Sep-30 09:37 282 0 gusting 2 21.7
2014-Sep-30 09:33 283 22.2
2014-Sep-30 09:23 269 1 gusting 1 21.7
2014-Sep-30 09:13 254 0 gusting 1 21.7
2014-Sep-30 09:07 253 1 gusting 4 21.1
2014-Sep-30 09:03 232 0 gusting 1 21.7
2014-Sep-30 08:53 230 21.7
2014-Sep-30 08:43 229 21.1
2014-Sep-30 08:37 229 0 gusting 4 20.6
2014-Sep-30 08:33 280 20.6
2014-Sep-30 08:23 281 0 gusting 0 20.6
2014-Sep-30 08:13 281 0 20.0
2014-Sep-30 08:06 292 19.4
2014-Sep-30 08:03 292 0 gusting 3 19.4
2014-Sep-30 07:53 292 19.4
2014-Sep-30 07:43 292 0 gusting 1 18.9
2014-Sep-30 07:36 292 18.3
2014-Sep-30 07:33 291 18.3
2014-Sep-30 07:23 291 0 gusting 1 17.2
2014-Sep-30 07:13 292 16.7
2014-Sep-30 07:05 293 16.1
2014-Sep-30 06:53 294 1 gusting 2 15.0
2014-Sep-30 06:50 294 0 gusting 3 14.4
2014-Sep-30 06:43 298 1 gusting 2 14.4
2014-Sep-30 06:35 298 1 gusting 3 13.9
2014-Sep-30 06:23 299 13.3
2014-Sep-30 06:20 299 0 gusting 3 13.3
2014-Sep-30 06:13 300 0 gusting 3 13.3
2014-Sep-30 06:04 299 0 gusting 2 12.8
2014-Sep-30 05:53 300 1 gusting 3 12.2
2014-Sep-30 05:49 300 0 gusting 3 12.2
2014-Sep-30 04:48 300 1 gusting 3 11.1
2014-Sep-30 04:43 300 1 gusting 2 11.7
2014-Sep-30 04:33 300 1 gusting 4 11.1
2014-Sep-30 04:23 300 1 gusting 2 11.7
2014-Sep-30 04:18 300 1 gusting 4 11.1
2014-Sep-30 04:13 301 2 gusting 3 11.7
2014-Sep-30 04:03 301 3 gusting 4 11.7
2014-Sep-30 03:53 303 1 gusting 2 11.7
2014-Sep-30 03:49 302 1 gusting 4 11.7
2014-Sep-30 03:43 300 3 gusting 4 11.7
2014-Sep-30 03:34 300 1 gusting 4 11.7
2014-Sep-30 03:23 305 2 gusting 3 11.7
2014-Sep-30 03:18 301 1 gusting 4 11.7
2014-Sep-30 03:13 303 0 gusting 3 12.2
2014-Sep-30 03:03 301 1 gusting 2 12.2
2014-Sep-30 02:53 300 1 gusting 3 12.2
2014-Sep-30 02:47 300 2 gusting 5 12.2
2014-Sep-30 02:43 300 2 gusting 3 12.2
2014-Sep-30 02:33 301 2 gusting 3 12.2
2014-Sep-30 02:23 301 2 gusting 3 12.2
2014-Sep-30 02:18 302 2 gusting 4 12.2
2014-Sep-30 02:13 300 2 gusting 4 12.8
2014-Sep-30 02:03 301 2 gusting 4 12.8
2014-Sep-30 01:53 301 1 gusting 2 12.8
2014-Sep-30 01:46 299 0 gusting 3 12.8
2014-Sep-30 01:43 311 0 gusting 2 12.8
2014-Sep-30 01:33 313 1 gusting 2 13.3
2014-Sep-30 01:23 339 1 gusting 2 13.3
2014-Sep-30 01:16 340 1 gusting 4 12.8
2014-Sep-30 01:13 346 1 gusting 3 13.3
2014-Sep-30 01:03 355 1 gusting 2 13.3
2014-Sep-30 00:53 044 0 gusting 1 13.9
2014-Sep-30 00:46 045 1 gusting 3 13.3
2014-Sep-30 00:43 055 13.9
2014-Sep-30 00:33 066 0 gusting 2 14.4
2014-Sep-30 00:23 069 14.4
2014-Sep-30 00:15 068 14.4
2014-Sep-30 00:03 069 15.0
2014-Sep-30 00:00 069 14.4
2014-Sep-29 23:53 069 15.0
2014-Sep-29 23:45 069 15.0
2014-Sep-29 23:33 069 15.6
2014-Sep-29 23:30 069 15.6
2014-Sep-29 23:23 069 16.1
2014-Sep-29 23:14 069 15.6
2014-Sep-29 23:03 069 16.1
2014-Sep-29 22:59 069 16.1
2014-Sep-29 22:53 069 16.7
2014-Sep-29 22:45 069 16.1
2014-Sep-29 22:33 069 16.7
2014-Sep-29 22:30 069 16.7
2014-Sep-29 22:23 069 16.7
2014-Sep-29 22:14 069 16.7
2014-Sep-29 22:03 069 16.7
2014-Sep-29 21:59 069 16.7
2014-Sep-29 21:53 069 17.2
2014-Sep-29 21:44 069 16.7
2014-Sep-29 21:33 069 0 gusting 0 17.2
2014-Sep-29 21:28 069 16.7
2014-Sep-29 21:23 069 1 gusting 3 17.2
2014-Sep-29 21:13 063 0 gusting 4 16.7
2014-Sep-29 21:03 063 0 gusting 3 17.2
2014-Sep-29 20:58 063 0 gusting 3 16.7
2014-Sep-29 20:53 063 0 gusting 3 17.2
2014-Sep-29 20:43 063 2 gusting 5 16.7
2014-Sep-29 20:33 091 1 gusting 2 17.2
2014-Sep-29 20:28 070 1 gusting 4 17.2
2014-Sep-29 20:23 075 0 gusting 3 17.2
2014-Sep-29 20:13 065 1 gusting 3 17.2
2014-Sep-29 20:03 060 2 gusting 6 17.8
2014-Sep-29 19:57 108 1 gusting 3 17.2
2014-Sep-29 19:53 108 17.8
2014-Sep-29 19:43 108 17.8
2014-Sep-29 19:33 147 1 gusting 3 17.8
2014-Sep-29 19:27 149 17.8
2014-Sep-29 19:23 150 17.8
2014-Sep-29 19:13 150 17.8
2014-Sep-29 19:03 150 18.3
2014-Sep-29 18:57 150 17.8
2014-Sep-29 18:53 150 18.3
2014-Sep-29 18:43 150 18.3
2014-Sep-29 18:33 150 0 gusting 2 18.3
2014-Sep-29 18:26 183 18.3
2014-Sep-29 18:23 189 18.9
2014-Sep-29 18:13 193 18.9
2014-Sep-29 18:03 193 18.9
2014-Sep-29 17:56 193 18.9
2014-Sep-29 17:53 193 19.4
2014-Sep-29 17:43 193 19.4
2014-Sep-29 17:33 193 19.4
2014-Sep-29 17:26 193 19.4
2014-Sep-29 17:23 193 19.4
2014-Sep-29 17:13 193 20.0
2014-Sep-29 17:03 193 20.0
2014-Sep-29 16:55 193 20.0
2014-Sep-29 16:43 193 20.6
2014-Sep-29 16:40 192 20.6
2014-Sep-29 16:33 193 21.1
2014-Sep-29 16:25 193 0 gusting 3 21.1
2014-Sep-29 16:13 192 0 gusting 4 21.7
2014-Sep-29 16:03 161 22.2
2014-Sep-29 15:55 213 22.2
2014-Sep-29 15:43 199 3 gusting 4 23.3
2014-Sep-29 15:40 188 1 gusting 7 22.8
2014-Sep-29 15:33 226 1 gusting 3 23.3
2014-Sep-29 15:25 282 23.3
2014-Sep-29 15:13 284 1 gusting 3 23.9
2014-Sep-29 15:09 283 0 gusting 4 23.3
2014-Sep-29 15:03 278 1 gusting 2 23.9
2014-Sep-29 14:54 278 0 gusting 5 23.9
2014-Sep-29 14:43 297 2 gusting 4 23.9
2014-Sep-29 14:39 300 23.9
2014-Sep-29 14:33 309 0 gusting 2 23.9
2014-Sep-29 14:24 279 23.9
2014-Sep-29 14:13 310 1 gusting 3 24.4
2014-Sep-29 14:09 312 0 gusting 5 23.9
2014-Sep-29 14:03 316 2 gusting 3 24.4
2014-Sep-29 13:53 302 23.9
2014-Sep-29 13:43 296 3 gusting 4 23.9
2014-Sep-29 13:38 310 0 gusting 6 23.9
2014-Sep-29 13:33 337 2 gusting 3 23.9
2014-Sep-29 13:23 200 23.9
2014-Sep-29 13:13 325 1 gusting 2 23.9
2014-Sep-29 13:08 271 0 gusting 6 23.3
2014-Sep-29 13:03 304 4 gusting 6 23.9
2014-Sep-29 12:53 304 1 gusting 10 23.3
2014-Sep-29 12:43 292 5 gusting 6 23.3
2014-Sep-29 12:38 277 3 gusting 7 23.3
2014-Sep-29 12:33 311 3 gusting 7 23.3
2014-Sep-29 12:23 264 2 gusting 5 23.3
2014-Sep-29 12:13 355 5 gusting 4 23.3
2014-Sep-29 12:07 314 4 gusting 12 23.3
2014-Sep-29 12:03 279 3 gusting 6 23.9
2014-Sep-29 11:53 271 5 gusting 6 23.9
2014-Sep-29 11:43 356 6 gusting 7 23.3
2014-Sep-29 11:37 277 2 gusting 7 23.3
2014-Sep-29 11:33 318 2 gusting 3 23.3
2014-Sep-29 11:23 340 1 gusting 6 23.3
2014-Sep-29 11:13 326 2 gusting 3 23.3
2014-Sep-29 11:09 291 3 gusting 10 22.8
2014-Sep-29 10:51 350 1 gusting 7 22.2
2014-Sep-29 10:42 341 2 gusting 7 22.2
2014-Sep-29 10:36 350 1 gusting 7 22.2
2014-Sep-29 10:33 345 3 gusting 7 22.8
2014-Sep-29 10:23 254 2 gusting 3 22.2
2014-Sep-29 10:13 329 2 gusting 4 22.2
2014-Sep-29 10:06 311 1 gusting 6 21.7
2014-Sep-29 10:03 324 2 gusting 6 21.7
2014-Sep-29 09:53 330 3 gusting 5 21.7
2014-Sep-29 09:43 310 4 gusting 7 21.1
2014-Sep-29 09:35 309 3 gusting 7 21.1
2014-Sep-29 09:23 324 2 gusting 5 21.1
2014-Sep-29 09:20 298 3 gusting 6 21.1
2014-Sep-29 09:13 319 4 gusting 6 21.1
2014-Sep-29 09:05 313 1 gusting 10 20.6
2014-Sep-29 08:53 308 6 gusting 7 20.6
2014-Sep-29 08:50 336 4 gusting 8 20.6
2014-Sep-29 08:43 309 3 gusting 6 21.1
2014-Sep-29 08:36 311 3 gusting 9 20.6
2014-Sep-29 08:33 332 3 gusting 4 20.6
2014-Sep-29 08:23 300 4 gusting 8 20.6
2014-Sep-29 08:20 297 3 gusting 7 20.0
2014-Sep-29 08:13 303 6 gusting 7 20.0
2014-Sep-29 08:04 337 1 gusting 5 19.4
2014-Sep-29 07:53 300 0 18.9
2014-Sep-29 07:49 299 1 gusting 4 18.9
2014-Sep-29 07:43 286 1 gusting 3 18.9
2014-Sep-29 07:34 299 2 gusting 4 18.3
2014-Sep-29 07:23 288 17.8
2014-Sep-29 07:19 287 0 gusting 3 17.2
2014-Sep-29 07:13 286 17.2
2014-Sep-29 07:04 284 0 gusting 4 16.1
2014-Sep-29 06:53 288 2 gusting 3 15.6
2014-Sep-29 06:48 292 0 gusting 4 14.4
2014-Sep-29 06:43 285 3 gusting 5 14.4
2014-Sep-29 06:34 313 3 gusting 6 13.9
2014-Sep-29 06:23 301 4 gusting 6 13.9
2014-Sep-29 06:18 299 3 gusting 6 13.3
2014-Sep-29 06:13 299 0 gusting 3 13.3
2014-Sep-29 06:03 296 2 gusting 4 12.8
2014-Sep-29 05:53 303 2 gusting 3 12.2
2014-Sep-29 05:47 304 0 gusting 3 12.2
2014-Sep-29 04:47 306 1 gusting 4 11.7
2014-Sep-29 04:43 306 0 gusting 2 11.7
2014-Sep-29 04:33 307 0 gusting 1 11.7
2014-Sep-29 04:23 306 12.2
2014-Sep-29 04:16 307 1 gusting 3 11.7
2014-Sep-29 04:13 307 12.2
2014-Sep-29 04:03 307 12.2
2014-Sep-29 03:53 307 1 gusting 2 12.2
2014-Sep-29 03:47 307 0 gusting 2 11.7
2014-Sep-29 03:43 307 0 gusting 2 12.2
2014-Sep-29 03:33 307 0 gusting 1 11.7
2014-Sep-29 03:23 307 1 gusting 2 11.7
2014-Sep-29 03:16 307 1 gusting 5 11.7
2014-Sep-29 03:13 309 3 gusting 3 11.7
2014-Sep-29 03:03 301 4 gusting 6 11.7
2014-Sep-29 03:00 300 3 gusting 6 11.7
2014-Sep-29 02:53 297 0 gusting 3 12.2
2014-Sep-29 02:45 296 1 gusting 3 11.7
2014-Sep-29 02:33 301 1 gusting 1 12.2
2014-Sep-29 02:30 302 1 gusting 3 12.2
2014-Sep-29 02:23 304 1 gusting 2 12.2
2014-Sep-29 02:15 307 0 gusting 3 12.2
2014-Sep-29 02:03 306 0 gusting 2 12.8
2014-Sep-29 02:00 306 0 gusting 3 12.2
2014-Sep-29 01:53 306 1 gusting 2 12.8
2014-Sep-29 01:44 302 2 gusting 5 12.8
2014-Sep-29 01:33 307 1 gusting 3 12.8
2014-Sep-29 01:29 307 1 gusting 4 12.8
2014-Sep-29 01:23 307 1 gusting 4 12.8
2014-Sep-29 01:14 306 2 gusting 4 12.8
2014-Sep-29 01:03 303 2 gusting 3 13.3
2014-Sep-29 00:59 300 2 gusting 5 13.3
2014-Sep-29 00:53 300 2 gusting 4 13.3
2014-Sep-29 00:45 303 2 gusting 5 13.3
2014-Sep-29 00:33 301 2 gusting 4 13.3
2014-Sep-29 00:29 300 1 gusting 5 13.3
2014-Sep-29 00:23 305 3 gusting 6 13.9
2014-Sep-29 00:13 301 3 gusting 6 13.9
2014-Sep-29 00:03 292 2 gusting 3 14.4
2014-Sep-28 23:58 290 2 gusting 3 14.4
2014-Sep-28 23:53 292 14.4
2014-Sep-28 23:44 289 1 gusting 6 14.4
2014-Sep-28 23:33 355 14.4
2014-Sep-28 23:28 355 14.4
2014-Sep-28 23:23 300 2 gusting 3 15.0
2014-Sep-28 23:13 313 1 gusting 4 14.4
2014-Sep-28 23:03 319 15.0
2014-Sep-28 22:58 320 15.0
2014-Sep-28 22:53 320 1 gusting 2 15.0
2014-Sep-28 22:43 320 0 gusting 1 15.6
2014-Sep-28 22:33 320 15.6
2014-Sep-28 22:28 320 15.6
2014-Sep-28 22:23 336 2 gusting 3 15.6
2014-Sep-28 22:13 338 16.1
2014-Sep-28 22:03 338 0 gusting 0 16.1
2014-Sep-28 21:57 338 16.1
2014-Sep-28 21:53 338 16.1
2014-Sep-28 21:43 321 16.1
2014-Sep-28 21:33 320 16.1
2014-Sep-28 21:27 320 16.1
2014-Sep-28 21:23 319 16.7
2014-Sep-28 21:13 319 16.7
2014-Sep-28 21:03 319 16.7